COSMOS 1292

Satellite information

Favourite Embed

Satellite Type and Status

PAYLOADIN ORBIT

Key statistics

Satellite COSMOS 1292 at a glance.

Uptime

15986

Days in orbit

Revolutions

≈ 12.5

Per day

Orbit

LEO

Low Earth Orbit

Inclination

74.0

Latest

Satellite identification and parameters

Extended collection of information and parameters for COSMOS 1292.

Object identification

Identified? True

Debris? False

Object name: COSMOS 1292

International designator: 1981-074F

Object number (NORAD): 12641

Object ID (CCSDS): 12641

Country: COMMONWEALTH OF INDEPENDENT STATES (CIS)

Current information (Y/N): Y

RCS size: MEDIUM

Orbital parameters

Period: 115.317 minutes

Inclination: 74.0332 deg

SMA: 7847.933 km

Apoapsis: 1476.104 km

Periapsis: 1463.492 km

RAAN: 198.8163 deg

Eccentricy: 0.0008035

Argument of periapsis: 22.9578 deg

Mean anomaly: 95.0233 deg

Mean motion: 12.48733687 rev/day

Mean motion (dot): 0.00000014 rev/day2

B* drag term: 0.00019665 1/REarth

Two-line elements (TLE)

Creation date: May 12, 2025, 2:31 a.m.

Reference frame: TEME

Reference center: EARTH

Epoch: May 11, 2025, 3:31 p.m. UTC

TLE line 0: 0 COSMOS 1292

TLE line 1: 1 12641U 81074F 25131.64661604 .00000014 00000-0 19665-3 0 9994

TLE line 2: 2 12641 74.0332 198.8163 0008035 22.9578 95.0233 12.48733687994979

Live tracking on map

Real-time ground track for satellite COSMOS 1292.

In-orbit conjunctions

There are no conjunctions computed for COSMOS 1292, at the moment. Check back to stay up to date, as we update our databases every day.

Go to all conjunctions

Associated space launch

Military communications satellites

COSMOS 1292 was lifted into orbit during the mission ‘Kosmos-3M | Strela-1M 217-224’, on board a Kosmos-3M space rocket.

The launch took place on Aug. 6, 1981, 11:49 a.m. from 132/2.

For more information about the launch, click the button.

Launch to space Kosmos-3M | Strela-1M 217-224
Kosmos-3M | Strela-1M 217-224

Agency: N/A

Status: Launch Successful

Launch date: Aug. 6, 1981, 11:49 a.m. UTC

Rocket: Kosmos-3M

Launch pad: 132/2

Location: Plesetsk Cosmodrome, Russian Federation

...

Latest news about this satellite

There are no fresh news available about this satellite. Check back as we update our databases every day.


Newsletter sign-up

Weekly statistics, charts and insights to help you stay on top of the space industry.